Regional Weather Roundup
Issued by NWS Cleveland, OH

Home | Current Version | Previous Version | Text Only | Print | Product List | Glossary On
Versions: 1 2 3 4 5 6 7 8 9 10 11 12 13 14 15 16 17 18 19 20 21 22 23 24 25 26 27 28 29 30 31 32 33 34 35 36 37 38 39 40 41 42 43 44 45 46 47 48 49 50
000
ASUS41 KCLE 190710
RWRCLE
OHIO REGIONAL WEATHER ROUNDUP
NATIONAL WEATHER SERVICE CLEVELAND, OH
300 AM EDT SAT APR 19 2014

NOTE: "FAIR" INDICATES FEW OR NO CLOUDS BELOW 12,000 FEET WITH NO
SIGNIFICANT WEATHER AND/OR OBSTRUCTIONS TO VISIBILITY.

OHZ001>008-015>018-024>027-034-035-043-044-190800-
   NORTHWEST OHIO

CITY           SKY/WX    TMP DP  RH WIND       PRES   REMARKS
DEFIANCE       CLEAR     44  38  79 NE6       30.32S
FINDLAY        MOCLDY    44  41  89 NE20      30.30R FOG
TOLEDO EXPRESS CLEAR     39  34  82 NE12      30.34R
TOLEDO EXEC    CLEAR     40  33  76 NE9       30.36R
LIMA           PTCLDY    45  41  86 NE9       30.28S
$$

OHZ009>014-019>023-028>033-038-089-190800-
   NORTHEAST OHIO

CITY           SKY/WX    TMP DP  RH WIND       PRES   REMARKS
CLE-HOPKINS    PTCLDY    40  34  79 NE12      30.35R
CLE-LAKEFRONT  CLEAR     40  36  86 NE16      30.32R
CUY CO. ARPT   NOT AVBL
LORAIN-ELYRIA  CLEAR     42  35  76 NE15      30.33R
ASHTABULA      CLEAR     42  36  79 N9        30.32R
AKRON-CANTON   PTCLDY    46  41  82 NE9       30.28R
WOOSTER        CLEAR     45  39  79 N9        30.29R
MANSFIELD      CLEAR     44  40  85 N7        30.28S
YOUNGSTOWN     PTCLDY    43  39  86 NE7       30.28S
$$

OHZ042-051>053-060>062-070>072-077>081-190800-
  SOUTHWEST OHIO

CITY           SKY/WX    TMP DP  RH WIND       PRES   REMARKS
CINC-COVINGTON MOCLDY    54  38  54 N13       30.24S
CINC-LUNKEN    PTCLDY    43  41  93 CALM      30.25S
HAMILTON       PTCLDY    52  38  58 CALM      30.26S
DAYTON         MOCLDY    47  37  68 N8        30.26F
WRIGHT-PAT AFB MOCLDY    50  38  64 N5        30.25S
DAYTON GENERAL PTCLDY    49  37  63 NE7       30.24S
WILMINGTON     PTCLDY    50  38  63 N9        30.24S
$$

OHZ036-037-039>041-045>050-054>059-063>069-073>076-082>088-190800-
  CENTRAL AND SOUTHEAST OHIO

CITY           SKY/WX    TMP DP  RH WIND       PRES   REMARKS
COLUMBUS       PTCLDY    51  39  63 N8        30.23S
OSU AIRPORT    PTCLDY    48  41  76 N8        30.24S
BOLTON FIELD   CLEAR     47  40  78 N6        30.24S
RICKENBACK AFB CLEAR     49  40  71 CALM      30.23S
NEWARK         PTCLDY    45  38  76 N6        30.24R
MARION         CLEAR     43  40  89 N9        30.28S
LANCASTER      CLEAR     41  38  89 CALM      30.23S
ZANESVILLE     PTCLDY    45  37  73 E3        30.23S
NEW PHILLY     PTCLDY    48  39  71 CALM      30.27R
$$



USA.gov is the U.S. government's official web portal to all federal, state and local government web resources and services.